Time,TemperatureF,DewpointF,PressureIn,WindDirection,WindDirectionDegrees,WindSpeedMPH,WindSpeedGustMPH,Humidity,HourlyPrecipIn,Conditions,Clouds,dailyrainin,SoftwareType,DateUTC
2013-08-29 00:01:00,76.3,73.0,30.01,East,86,1.0,3.0,88,0.00,,,0.00,weatherlink.com 1.10,2013-08-29 05:01:00,
2013-08-29 00:16:00,76.2,73.0,30.01,East,87,0.0,2.0,89,0.00,,,0.00,weatherlink.com 1.10,2013-08-29 05:16:00,
2013-08-29 00:31:00,76.1,73.0,30.01,East,89,0.0,2.0,89,0.00,,,0.00,weatherlink.com 1.10,2013-08-29 05:31:00,
2013-08-29 00:46:00,76.1,73.0,30.01,East,97,0.0,3.0,89,0.00,,,0.00,weatherlink.com 1.10,2013-08-29 05:46:00,
2013-08-29 01:01:00,75.9,73.0,30.01,ESE,119,0.0,4.0,89,0.00,,,0.00,weatherlink.com 1.10,2013-08-29 06:01:00,
2013-08-29 01:16:00,75.6,72.0,30.02,ESE,119,2.0,3.0,89,0.00,,,0.00,weatherlink.com 1.10,2013-08-29 06:16:00,
2013-08-29 01:31:00,75.3,72.0,30.02,ESE,120,0.0,1.0,89,0.00,,,0.00,weatherlink.com 1.10,2013-08-29 06:31:00,
2013-08-29 01:46:00,75.0,72.0,30.01,ESE,120,0.0,1.0,90,0.00,,,0.00,weatherlink.com 1.10,2013-08-29 06:46:00,
2013-08-29 02:02:00,74.8,72.0,30.01,ESE,120,0.0,1.0,90,0.00,,,0.00,weatherlink.com 1.10,2013-08-29 07:02:00,
2013-08-29 02:16:00,74.6,72.0,30.01,ESE,119,0.0,1.0,90,0.00,,,0.00,weatherlink.com 1.10,2013-08-29 07:16:00,
2013-08-29 02:31:00,74.4,71.0,30.01,ESE,120,0.0,2.0,90,0.00,,,0.00,weatherlink.com 1.10,2013-08-29 07:31:00,
2013-08-29 02:46:00,74.2,72.0,30.01,ESE,119,0.0,1.0,91,0.00,,,0.00,weatherlink.com 1.10,2013-08-29 07:46:00,
2013-08-29 03:01:00,74.2,72.0,30.01,ESE,119,0.0,2.0,91,0.00,,,0.00,weatherlink.com 1.10,2013-08-29 08:01:00,
2013-08-29 03:16:00,74.3,72.0,30.02,ESE,119,0.0,0.0,91,0.00,,,0.00,weatherlink.com 1.10,2013-08-29 08:16:00,
2013-08-29 03:31:00,74.4,72.0,30.01,ESE,121,1.0,4.0,91,0.00,,,0.00,weatherlink.com 1.10,2013-08-29 08:31:00,
2013-08-29 03:46:00,74.3,72.0,30.01,SE,142,0.0,7.0,91,0.00,,,0.00,weatherlink.com 1.10,2013-08-29 08:46:00,
2013-08-29 04:01:00,74.2,72.0,30.01,SSE,153,0.0,7.0,91,0.00,,,0.00,weatherlink.com 1.10,2013-08-29 09:01:00,
2013-08-29 04:16:00,74.3,72.0,30.01,SSE,153,0.0,1.0,91,0.00,,,0.00,weatherlink.com 1.10,2013-08-29 09:16:00,
2013-08-29 04:31:00,74.2,72.0,30.01,SSE,153,0.0,2.0,91,0.00,,,0.00,weatherlink.com 1.10,2013-08-29 09:31:00,
2013-08-29 04:46:00,74.0,71.0,30.01,SSE,153,0.0,1.0,91,0.00,,,0.00,weatherlink.com 1.10,2013-08-29 09:46:00,
2013-08-29 05:01:00,73.8,71.0,30.01,SSE,153,0.0,3.0,91,0.00,,,0.00,weatherlink.com 1.10,2013-08-29 10:01:00,
2013-08-29 05:16:00,73.7,71.0,30.01,SSE,153,0.0,1.0,91,0.00,,,0.00,weatherlink.com 1.10,2013-08-29 10:16:00,
2013-08-29 05:31:00,73.4,71.0,30.00,SSE,153,0.0,1.0,91,0.00,,,0.00,weatherlink.com 1.10,2013-08-29 10:31:00,
2013-08-29 05:46:00,73.1,70.0,30.01,SSE,153,0.0,1.0,91,0.00,,,0.00,weatherlink.com 1.10,2013-08-29 10:46:00,
2013-08-29 06:01:00,73.0,70.0,30.01,SSE,153,0.0,1.0,91,0.00,,,0.00,weatherlink.com 1.10,2013-08-29 11:01:00,
2013-08-29 06:16:00,72.7,70.0,30.01,SSE,153,0.0,1.0,91,0.00,,,0.00,weatherlink.com 1.10,2013-08-29 11:16:00,
2013-08-29 06:31:00,72.6,70.0,30.02,SSE,153,0.0,1.0,91,0.00,,,0.00,weatherlink.com 1.10,2013-08-29 11:31:00,
2013-08-29 06:46:00,72.5,70.0,30.02,SSE,153,0.0,0.0,91,0.00,,,0.00,weatherlink.com 1.10,2013-08-29 11:46:00,
2013-08-29 07:01:00,72.5,70.0,30.02,SSE,153,0.0,1.0,91,0.00,,,0.00,weatherlink.com 1.10,2013-08-29 12:01:00,
2013-08-29 07:16:00,72.5,70.0,30.03,SSE,153,0.0,1.0,91,0.00,,,0.00,weatherlink.com 1.10,2013-08-29 12:16:00,
2013-08-29 07:31:00,72.5,70.0,30.03,SSE,153,0.0,1.0,91,0.00,,,0.00,weatherlink.com 1.10,2013-08-29 12:31:00,
2013-08-29 07:46:00,72.7,70.0,30.03,SSE,153,0.0,1.0,91,0.00,,,0.00,weatherlink.com 1.10,2013-08-29 12:46:00,
2013-08-29 08:01:00,73.4,71.0,30.03,SSE,153,0.0,1.0,91,0.00,,,0.00,weatherlink.com 1.10,2013-08-29 13:01:00,
2013-08-29 08:16:00,75.0,72.0,30.03,SSE,153,0.0,1.0,90,0.00,,,0.00,weatherlink.com 1.10,2013-08-29 13:16:00,
2013-08-29 08:31:00,76.5,72.0,30.03,SSE,153,0.0,2.0,87,0.00,,,0.00,weatherlink.com 1.10,2013-08-29 13:31:00,
2013-08-29 08:46:00,78.4,72.0,30.02,SSE,153,0.0,1.0,81,0.00,,,0.00,weatherlink.com 1.10,2013-08-29 13:46:00,
2013-08-29 09:01:00,80.0,72.0,30.02,SSE,153,0.0,2.0,77,0.00,,,0.00,weatherlink.com 1.10,2013-08-29 14:01:00,
2013-08-29 09:16:00,81.2,73.0,30.02,SSE,153,0.0,3.0,75,0.00,,,0.00,weatherlink.com 1.10,2013-08-29 14:16:00,
2013-08-29 09:31:00,82.7,72.0,30.02,SSE,153,1.0,1.0,71,0.00,,,0.00,weatherlink.com 1.10,2013-08-29 14:31:00,
2013-08-29 09:47:00,83.2,72.0,30.02,SSE,153,0.0,5.0,69,0.00,,,0.00,weatherlink.com 1.10,2013-08-29 14:47:00,
2013-08-29 10:02:00,83.7,72.0,30.02,SSE,153,0.0,3.0,68,0.00,,,0.00,weatherlink.com 1.10,2013-08-29 15:02:00,
2013-08-29 10:17:00,84.8,73.0,30.03,SSE,153,1.0,5.0,67,0.00,,,0.00,weatherlink.com 1.10,2013-08-29 15:17:00,
2013-08-29 10:32:00,85.8,71.0,30.02,SSW,201,0.0,5.0,62,0.00,,,0.00,weatherlink.com 1.10,2013-08-29 15:32:00,
2013-08-29 10:47:00,86.6,71.0,30.02,SSW,207,1.0,5.0,60,0.00,,,0.00,weatherlink.com 1.10,2013-08-29 15:47:00,
2013-08-29 11:02:00,87.7,71.0,30.03,SW,236,0.0,6.0,58,0.00,,,0.00,weatherlink.com 1.10,2013-08-29 16:02:00,
2013-08-29 11:17:00,88.7,70.0,30.02,SW,236,0.0,7.0,55,0.00,,,0.00,weatherlink.com 1.10,2013-08-29 16:17:00,
2013-08-29 11:32:00,88.9,72.0,30.02,WSW,241,0.0,5.0,57,0.00,,,0.00,weatherlink.com 1.10,2013-08-29 16:32:00,
2013-08-29 11:47:00,88.5,70.0,30.01,SW,219,0.0,5.0,55,0.00,,,0.00,weatherlink.com 1.10,2013-08-29 16:47:00,
2013-08-29 12:02:00,90.0,71.0,30.01,SW,230,0.0,6.0,54,0.00,,,0.00,weatherlink.com 1.10,2013-08-29 17:02:00,
2013-08-29 12:17:00,90.9,69.0,30.00,SW,221,0.0,5.0,48,0.00,,,0.00,weatherlink.com 1.10,2013-08-29 17:17:00,
2013-08-29 12:32:00,91.3,70.0,30.00,SW,217,0.0,5.0,50,0.00,,,0.00,weatherlink.com 1.10,2013-08-29 17:32:00,
2013-08-29 12:47:00,90.9,70.0,30.00,SW,217,1.0,6.0,50,0.00,,,0.00,weatherlink.com 1.10,2013-08-29 17:47:00,
2013-08-29 13:02:00,91.3,70.0,29.99,SW,236,1.0,7.0,49,0.00,,,0.00,weatherlink.com 1.10,2013-08-29 18:02:00,
2013-08-29 13:17:00,91.5,72.0,29.99,West,273,3.0,7.0,53,0.00,,,0.00,weatherlink.com 1.10,2013-08-29 18:17:00,
2013-08-29 13:32:00,92.1,70.0,29.98,West,266,1.0,4.0,49,0.00,,,0.00,weatherlink.com 1.10,2013-08-29 18:32:00,
2013-08-29 13:47:00,91.7,71.0,29.98,West,259,0.0,6.0,51,0.00,,,0.00,weatherlink.com 1.10,2013-08-29 18:47:00,
2013-08-29 14:02:00,91.2,71.0,29.98,WSW,248,0.0,4.0,51,0.00,,,0.00,weatherlink.com 1.10,2013-08-29 19:02:00,
2013-08-29 14:17:00,91.5,71.0,29.98,WSW,246,2.0,5.0,51,0.00,,,0.00,weatherlink.com 1.10,2013-08-29 19:17:00,
2013-08-29 14:32:00,91.1,71.0,29.97,SW,236,0.0,4.0,52,0.00,,,0.00,weatherlink.com 1.10,2013-08-29 19:32:00,
2013-08-29 14:47:00,91.3,71.0,29.96,SW,230,0.0,6.0,51,0.00,,,0.00,weatherlink.com 1.10,2013-08-29 19:47:00,
2013-08-29 15:02:00,92.5,70.0,29.96,SW,230,2.0,5.0,48,0.00,,,0.00,weatherlink.com 1.10,2013-08-29 20:02:00,
2013-08-29 15:17:00,92.4,71.0,29.96,SW,227,0.0,6.0,49,0.00,,,0.00,weatherlink.com 1.10,2013-08-29 20:17:00,
2013-08-29 15:32:00,91.5,70.0,29.96,SW,228,0.0,6.0,50,0.00,,,0.00,weatherlink.com 1.10,2013-08-29 20:32:00,
2013-08-29 15:47:00,91.0,70.0,29.95,SW,222,0.0,7.0,51,0.00,,,0.00,weatherlink.com 1.10,2013-08-29 20:47:00,
2013-08-29 16:02:00,90.9,70.0,29.95,SW,221,3.0,7.0,51,0.00,,,0.00,weatherlink.com 1.10,2013-08-29 21:02:00,
2013-08-29 16:17:00,91.2,70.0,29.95,South,184,0.0,4.0,50,0.00,,,0.00,weatherlink.com 1.10,2013-08-29 21:17:00,
2013-08-29 16:32:00,91.0,70.0,29.94,South,189,0.0,6.0,51,0.00,,,0.00,weatherlink.com 1.10,2013-08-29 21:32:00,
2013-08-29 16:47:00,91.9,71.0,29.94,South,186,3.0,5.0,51,0.00,,,0.00,weatherlink.com 1.10,2013-08-29 21:47:00,
2013-08-29 17:02:00,91.5,70.0,29.94,South,186,0.0,4.0,50,0.00,,,0.00,weatherlink.com 1.10,2013-08-29 22:02:00,
2013-08-29 17:18:00,91.4,71.0,29.93,SSW,192,1.0,4.0,51,0.00,,,0.00,weatherlink.com 1.10,2013-08-29 22:18:00,
2013-08-29 17:33:00,90.4,71.0,29.93,South,181,2.0,6.0,53,0.00,,,0.00,weatherlink.com 1.10,2013-08-29 22:33:00,
2013-08-29 17:48:00,90.6,71.0,29.93,South,182,0.0,3.0,53,0.00,,,0.00,weatherlink.com 1.10,2013-08-29 22:48:00,
2013-08-29 18:03:00,90.4,72.0,29.93,South,182,0.0,5.0,54,0.00,,,0.00,weatherlink.com 1.10,2013-08-29 23:03:00,
2013-08-29 18:18:00,90.3,72.0,29.92,South,182,1.0,4.0,55,0.00,,,0.00,weatherlink.com 1.10,2013-08-29 23:18:00,
2013-08-29 18:33:00,89.2,73.0,29.92,South,182,0.0,1.0,59,0.00,,,0.00,weatherlink.com 1.10,2013-08-29 23:33:00,
2013-08-29 18:48:00,87.9,73.0,29.91,South,182,0.0,2.0,61,0.00,,,0.00,weatherlink.com 1.10,2013-08-29 23:48:00,
2013-08-29 19:03:00,86.5,73.0,29.91,South,182,0.0,1.0,64,0.00,,,0.00,weatherlink.com 1.10,2013-08-30 00:03:00,
2013-08-29 19:18:00,85.2,72.0,29.90,South,182,0.0,2.0,65,0.00,,,0.00,weatherlink.com 1.10,2013-08-30 00:18:00,
2013-08-29 19:33:00,84.1,72.0,29.91,South,182,0.0,4.0,67,0.00,,,0.00,weatherlink.com 1.10,2013-08-30 00:33:00,
2013-08-29 19:48:00,83.0,72.0,29.91,South,182,2.0,2.0,69,0.00,,,0.00,weatherlink.com 1.10,2013-08-30 00:48:00,
2013-08-29 20:03:00,81.9,72.0,29.91,South,182,0.0,0.0,71,0.00,,,0.00,weatherlink.com 1.10,2013-08-30 01:03:00,
2013-08-29 20:18:00,80.9,72.0,29.91,South,182,0.0,0.0,73,0.00,,,0.00,weatherlink.com 1.10,2013-08-30 01:18:00,
2013-08-29 20:33:00,80.1,72.0,29.91,South,182,0.0,1.0,75,0.00,,,0.00,weatherlink.com 1.10,2013-08-30 01:33:00,
2013-08-29 20:48:00,79.3,72.0,29.91,South,182,0.0,0.0,77,0.00,,,0.00,weatherlink.com 1.10,2013-08-30 01:48:00,
2013-08-29 21:03:00,78.7,71.0,29.91,South,182,0.0,1.0,78,0.00,,,0.00,weatherlink.com 1.10,2013-08-30 02:03:00,
2013-08-29 21:18:00,78.0,71.0,29.91,South,182,0.0,0.0,79,0.00,,,0.00,weatherlink.com 1.10,2013-08-30 02:18:00,
2013-08-29 21:33:00,77.5,71.0,29.92,South,182,0.0,2.0,80,0.00,,,0.00,weatherlink.com 1.10,2013-08-30 02:33:00,
2013-08-29 21:48:00,77.1,71.0,29.92,South,182,0.0,1.0,80,0.00,,,0.00,weatherlink.com 1.10,2013-08-30 02:48:00,
2013-08-29 22:03:00,76.7,70.0,29.91,South,182,0.0,0.0,80,0.00,,,0.00,weatherlink.com 1.10,2013-08-30 03:03:00,
2013-08-29 22:18:00,76.3,70.0,29.91,South,182,0.0,0.0,80,0.00,,,0.00,weatherlink.com 1.10,2013-08-30 03:18:00,
2013-08-29 22:33:00,76.0,70.0,29.91,South,182,0.0,1.0,81,0.00,,,0.00,weatherlink.com 1.10,2013-08-30 03:33:00,
2013-08-29 22:48:00,75.8,70.0,29.91,South,182,0.0,0.0,81,0.00,,,0.00,weatherlink.com 1.10,2013-08-30 03:48:00,
2013-08-29 23:03:00,75.9,69.0,29.91,South,182,0.0,1.0,80,0.00,,,0.00,weatherlink.com 1.10,2013-08-30 04:03:00,
2013-08-29 23:18:00,76.0,69.0,29.91,South,182,0.0,1.0,80,0.00,,,0.00,weatherlink.com 1.10,2013-08-30 04:18:00,
2013-08-29 23:33:00,76.0,69.0,29.91,South,182,0.0,1.0,80,0.00,,,0.00,weatherlink.com 1.10,2013-08-30 04:33:00,
2013-08-29 23:48:00,75.9,69.0,29.91,South,182,0.0,2.0,80,0.00,,,0.00,weatherlink.com 1.10,2013-08-30 04:48:00,